Location: Unspecified
(49.2170°N, 0.0000°E)
Time: 11:19:28
(UTC+00:00)

S-56A Canister/Altair - Pass Details

Date: 21 January 2021
Orbit: 631 x 2501 km, 38.9° (Epoch: 05 March)

Event Time Altitude Azimuth Distance (km) Brightness Sun altitude
Exits shadow 04:46:01 25° 166° (SSE) 1,448 9.0 -28.7°
Drops below altitude 10° 04:50:27 10° 115° (ESE) 2,515 10.9 -28.0°
Sets 04:53:49 0° 103° (ESE) 3,729 12.2 -27.4°
